Voltar ao catálogo

STARLINK-11691

AtivoComunicaçõesVLEO
NORAD 64236·PAYLOAD·🇺🇸 United States

Lançado Jun 3, 2025 de Cape Canaveral Space Force Station

Loading…

Próximas Passagens (próximas 24 horas)

TLE

AtualizadoSource: CelesTrak SupGP

Época: Sep 15, 2026, 02:29 UTC

1 64236C 25119D   26258.10395833  .00083087  00000+0  64521-3 0  2588
2 64236  43.0007 147.2235 0001672 267.9270 196.0481 15.70801828    10

Acompanhe STARLINK-11691 em tempo real com AllMySat

Download on the App Store